Change the Weather History Date:

Friday, February 3, 2012

  Actual Average Record
Temperature  
Mean Temperature 41 °F 40 °F  
Max Temperature 57 °F 48 °F 60 °F (1954)
Min Temperature 24 °F 33 °F 1 °F (1950)
Degree Days  
Heating Degree Days 24 24  
Month to date heating degree days 73 73  
Since 1 July heating degree days 3284 3124  
Cooling Degree Days 0 0  
Month to date cooling degree days 0 0  
Year to date cooling degree days 0 0  
Moisture  
Dew Point 27 °F    
Average Humidity 66    
Maximum Humidity 100    
Minimum Humidity 32    
Precipitation  
Precipitation 0.00 in 0.21 in 1.50 in (1968)
Month to date precipitation 0.14 0.60  
Year to date precipitation 8.86 8.44  
Sea Level Pressure  
Sea Level Pressure 30.16 in    
Wind  
Wind Speed 1 mph (East)    
Max Wind Speed 6 mph    
Max Gust Speed 6 mph    
Visibility 5 miles    
Events Fog    
T = Trace of Precipitation, MM = Missing Value Source: NWS Daily Summary

Daily Weather History Graph

Daily Weather History Graph

Search for Another Location

Airport or City:

Trip Planner

Search our weather history database for the weather conditions in past years. The results will help you decide how hot, cold, wet, or windy it might be!

Date:

Astronomy

Feb. 03, 2012 Rise Set
Actual Time 7:34 AM PST 5:17 PM PST
Civil Twilight 7:01 AM PST 5:49 PM PST
Nautical Twilight 6:25 AM PST 6:25 PM PST
Astronomical Twilight 5:50 AM PST 7:01 PM PST
Moon 1:14 PM PST (2/3) 4:23 AM PST (2/3)
Length of Visible Light 10h 47m
Length of Day
9h 42m
Waxing Gibbous, 82% of the Moon is Illuminated
Feb 3
Waxing Gibbous
Feb 7
Full
Feb 14
Last Quarter
Feb 21
New
Feb 29
First Quarter

Hourly Weather History & Observations

Time (PST) Temp. Windchill Dew Point Humidity Pressure Visibility Wind Dir Wind Speed Gust Speed Precip Events Conditions
12:54 AM 30.0 °F - 28.9 °F 96% 30.25 in 5.0 mi Calm Calm - N/A   Clear
1:54 AM 28.9 °F - 27.0 °F 92% 30.24 in 7.0 mi Calm Calm - N/A   Clear
2:43 AM 26.6 °F - 24.8 °F 93% 30.21 in 2.5 mi Calm Calm - N/A   Clear
2:50 AM 26.6 °F - 24.8 °F 93% 30.21 in 1.0 mi Calm Calm - N/A   Clear
2:54 AM 28.0 °F - 26.1 °F 92% 30.22 in 0.8 mi Calm Calm - N/A   Clear
3:00 AM 26.6 °F - 24.8 °F 93% 30.21 in 1.8 mi Calm Calm - N/A   Clear
3:02 AM 26.6 °F - 24.8 °F 93% 30.21 in 3.0 mi Calm Calm - N/A   Partly Cloudy
3:28 AM 26.6 °F - 26.6 °F 100% 30.20 in 1.5 mi Calm Calm - N/A   Clear
3:31 AM 26.6 °F - 24.8 °F 93% 30.20 in 0.8 mi Calm Calm - N/A   Clear
3:49 AM 28.4 °F 23.3 °F 26.6 °F 93% 30.19 in 1.8 mi NE 4.6 mph - N/A   Clear
3:51 AM 28.4 °F 23.3 °F 26.6 °F 93% 30.19 in 3.0 mi NE 4.6 mph - N/A   Clear
3:54 AM 27.0 °F - 26.1 °F 96% 30.20 in 4.0 mi Calm Calm - N/A   Clear
4:11 AM 28.4 °F - 24.8 °F 86% 30.19 in 6.0 mi Calm Calm - N/A   Scattered Clouds
4:19 AM 24.8 °F - 24.8 °F 100% 30.19 in 8.0 mi Calm Calm - N/A   Mostly Cloudy
4:35 AM 26.6 °F - 24.8 °F 93% 30.19 in 1.8 mi Calm Calm - N/A   Overcast
4:42 AM 26.6 °F 22.6 °F 24.8 °F 93% 30.19 in 0.8 mi WSW 3.5 mph - N/A   Mist
4:52 AM 26.6 °F - 26.6 °F 100% 30.18 in 2.0 mi Calm Calm - N/A   Overcast
4:54 AM 27.0 °F - 26.1 °F 96% 30.19 in 3.0 mi Calm Calm - N/A   Mostly Cloudy
5:02 AM 26.6 °F - 26.6 °F 100% 30.17 in 1.8 mi Calm Calm - N/A   Mostly Cloudy
5:06 AM 26.6 °F 22.6 °F 24.8 °F 93% 30.17 in 0.8 mi East 3.5 mph - N/A   Mist
5:38 AM 24.8 °F - 24.8 °F 100% 30.16 in 0.2 mi Calm Calm - N/A Fog Light Freezing Fog
5:54 AM 27.0 °F 23.0 °F 25.0 °F 92% 30.17 in 0.8 mi East 3.5 mph - N/A   Mist
6:01 AM 24.8 °F 20.5 °F 24.8 °F 100% 30.16 in 1.2 mi South 3.5 mph - N/A   Mostly Cloudy
6:10 AM 26.6 °F - 26.6 °F 100% 30.16 in 1.5 mi Calm Calm - N/A   Scattered Clouds
6:21 AM 26.6 °F - 24.8 °F 93% 30.16 in 1.2 mi Calm Calm - N/A   Scattered Clouds
6:25 AM 26.6 °F - 24.8 °F 93% 30.16 in 2.0 mi Calm Calm - N/A   Scattered Clouds
6:32 AM 26.6 °F - 24.8 °F 93% 30.16 in 6.0 mi Calm Calm - N/A   Partly Cloudy
6:54 AM 27.0 °F - 25.0 °F 92% 30.16 in 5.0 mi Calm Calm - N/A   Clear
7:04 AM 24.8 °F - 23.0 °F 93% 30.15 in 1.8 mi Calm Calm - N/A   Partly Cloudy
7:07 AM 24.8 °F 20.5 °F 23.0 °F 93% 30.15 in 1.0 mi ESE 3.5 mph - N/A   Mist
7:15 AM 26.6 °F 22.6 °F 24.8 °F 93% 30.14 in 1.8 mi East 3.5 mph - N/A   Scattered Clouds
7:21 AM 26.6 °F 20.0 °F 24.8 °F 93% 30.14 in 4.0 mi East 5.8 mph - N/A   Scattered Clouds
7:54 AM 26.6 °F - 24.8 °F 93% 30.14 in 7.0 mi Calm Calm - N/A   Clear
8:54 AM 30.0 °F - 28.0 °F 92% 30.14 in 8.0 mi Calm Calm - N/A   Clear
9:54 AM 35.1 °F - 33.1 °F 92% 30.14 in 10.0 mi Calm Calm - N/A   Clear
10:54 AM 45.0 °F - 33.1 °F 63% 30.13 in 10.0 mi Calm Calm - N/A   Clear
11:54 AM 48.9 °F - 32.0 °F 52% 30.12 in 10.0 mi Calm Calm - N/A   Clear
12:54 PM 52.0 °F - 30.9 °F 45% 30.09 in 10.0 mi Calm Calm - N/A   Clear
1:54 PM 55.0 °F - 30.0 °F 38% 30.09 in 10.0 mi Calm Calm - N/A   Clear
2:54 PM 55.0 °F - 28.9 °F 37% 30.09 in 10.0 mi Calm Calm - N/A   Clear
3:54 PM 55.9 °F - 27.0 °F 33% 30.09 in 10.0 mi Calm Calm - N/A   Clear
4:54 PM 46.9 °F - 30.0 °F 52% 30.10 in 10.0 mi Calm Calm - N/A   Clear
5:54 PM 39.9 °F - 30.0 °F 68% 30.10 in 10.0 mi Calm Calm - N/A   Clear
6:54 PM 36.0 °F 33.3 °F 28.9 °F 76% 30.12 in 10.0 mi Variable 3.5 mph - N/A   Clear
7:54 PM 32.0 °F - 27.0 °F 82% 30.12 in 10.0 mi Calm Calm - N/A   Clear
8:54 PM 32.0 °F - 28.9 °F 88% 30.13 in 10.0 mi Calm Calm - N/A   Clear
9:54 PM 30.0 °F - 27.0 °F 88% 30.14 in 10.0 mi Calm Calm - N/A   Clear
10:54 PM 28.9 °F - 27.0 °F 92% 30.15 in 6.0 mi Calm Calm - N/A   Clear
11:54 PM 28.0 °F - 26.1 °F 92% 30.16 in 7.0 mi Calm Calm - N/A   Clear